Jefferson, NC

10:14 AM EDT on September 22, 2017 (GMT -0400)
Ashe County

Weather History for KGEV - February, 2009

Change the Weather History Date:

Friday, February 20, 2009

  Actual Average Record
Temperature  
Mean Temperature 21 °F -  
Max Temperature 30 °F 47 °F 66 °F (1986)
Min Temperature 12 °F 26 °F -4 °F (2015)
Degree Days  
Heating Degree Days 44    
Moisture  
Dew Point 4 °F    
Average Humidity 50    
Maximum Humidity 68    
Minimum Humidity 31    
Precipitation  
Precipitation 0.00 in - - ()
Sea Level Pressure  
Sea Level Pressure 29.95 in    
Wind  
Wind Speed 13 mph (WNW)    
Max Wind Speed 23 mph    
Max Gust Speed 40 mph    
Visibility 10 miles    
Events      
Averages and records for this station are not official NWS values.
T = Trace of Precipitation, MM = Missing Value Source: NWS Daily Summary

Daily Weather History Graph

Daily Weather History Graph

Search for Another Location

Airport or City:

Trip Planner

Search our weather history database for the weather conditions in past years. The results will help you decide how hot, cold, wet, or windy it might be!

Date:

Astronomy

Feb. 20, 2009 Rise Set
Actual Time 7:07 AM EST 6:11 PM EST
Civil Twilight 6:41 AM EST 6:38 PM EST
Nautical Twilight 6:11 AM EST 7:08 PM EST
Astronomical Twilight 5:41 AM EST 7:37 PM EST
Moon 4:30 AM EST (2/20) 2:06 PM EST (2/20)
Length of Visible Light 11h 56m
Length of Day
11h 04m
Waning Crescent, 17% of the Moon is Illuminated
Feb 20
Waning Crescent
Feb 24
New
Mar 4
First Quarter
Mar 10
Full
Mar 18
Last Quarter

Hourly Weather History & Observations

Time (EST) Temp. Windchill Dew Point Humidity Pressure Visibility Wind Dir Wind Speed Gust Speed Precip Events Conditions
12:00 AM 17.6 °F 2.7 °F 5.0 °F 58% 29.83 in 10.0 mi NW 16.1 mph 31.1 mph N/A   Clear
12:20 AM 17.6 °F 3.2 °F 6.8 °F 63% 29.83 in 10.0 mi NW 15.0 mph 38.0 mph N/A   Clear
12:40 AM 17.6 °F 2.7 °F 6.8 °F 63% 29.83 in 10.0 mi NNW 16.1 mph 34.5 mph N/A   Clear
1:00 AM 17.6 °F 3.7 °F 5.0 °F 58% 29.84 in 10.0 mi NW 13.8 mph 27.6 mph N/A   Clear
1:20 AM 17.6 °F 2.7 °F 5.0 °F 58% 29.85 in 10.0 mi NW 16.1 mph 32.2 mph N/A   Clear
1:40 AM 15.8 °F 2.7 °F 3.2 °F 58% 29.86 in 10.0 mi NW 11.5 mph 26.5 mph N/A   Clear
2:00 AM 15.8 °F -2.3 °F 3.2 °F 58% 29.86 in 10.0 mi WNW 23.0 mph 34.5 mph N/A   Clear
2:20 AM 15.8 °F 2.7 °F 3.2 °F 58% 29.86 in 10.0 mi WNW 11.5 mph 28.8 mph N/A   Clear
2:40 AM 15.8 °F -0.6 °F 5.0 °F 62% 29.85 in 10.0 mi WNW 18.4 mph 31.1 mph N/A   Clear
3:02 AM 15.8 °F 1.4 °F 3.2 °F 58% 29.85 in 10.0 mi NW 13.8 mph 29.9 mph N/A   Clear
3:21 AM 15.8 °F -1.1 °F 3.2 °F 58% 29.86 in 10.0 mi NW 19.6 mph 32.2 mph N/A   Clear
3:40 AM 15.8 °F -0.6 °F 3.2 °F 58% 29.86 in 10.0 mi NW 18.4 mph 31.1 mph N/A   Clear
4:00 AM 15.8 °F 2.1 °F 5.0 °F 62% 29.86 in 10.0 mi NW 12.7 mph 40.3 mph N/A   Clear
4:20 AM 15.8 °F 1.4 °F 6.8 °F 68% 29.87 in 10.0 mi NW 13.8 mph 32.2 mph N/A   Clear
4:40 AM 15.8 °F 2.7 °F 6.8 °F 68% 29.87 in 10.0 mi WNW 11.5 mph 25.3 mph N/A   Clear
5:00 AM 15.8 °F 4.2 °F 5.0 °F 62% 29.88 in 10.0 mi West 9.2 mph 20.7 mph N/A   Clear
5:20 AM 15.8 °F -0.2 °F 5.0 °F 62% 29.87 in 10.0 mi WNW 17.3 mph 33.4 mph N/A   Clear
5:40 AM 14.0 °F 1.2 °F 5.0 °F 67% 29.88 in 10.0 mi WNW 10.4 mph 21.9 mph N/A   Clear
6:00 AM 15.8 °F 2.1 °F 6.8 °F 68% 29.87 in 10.0 mi NW 12.7 mph 20.7 mph N/A   Clear
6:20 AM 12.2 °F -3.7 °F 3.2 °F 67% 29.87 in 10.0 mi WNW 15.0 mph 20.7 mph N/A   Clear
6:40 AM 12.2 °F -4.3 °F 3.2 °F 67% 29.88 in 10.0 mi WNW 16.1 mph 19.6 mph N/A   Clear
7:20 AM 12.2 °F 0.7 °F 3.2 °F 67% 29.90 in 10.0 mi NW 8.1 mph 24.2 mph N/A   Clear
7:41 AM 12.2 °F -0.2 °F 3.2 °F 67% 29.90 in 10.0 mi NNW 9.2 mph 18.4 mph N/A   Clear
8:00 AM 12.2 °F -2.5 °F 3.2 °F 67% 29.91 in 10.0 mi WNW 12.7 mph 19.6 mph N/A   Clear
8:20 AM 15.8 °F 7.2 °F 6.8 °F 68% 29.92 in 10.0 mi WNW 5.8 mph 21.9 mph N/A   Clear
8:40 AM 15.8 °F 6.1 °F 3.2 °F 58% 29.93 in 10.0 mi WSW 6.9 mph - N/A   Clear
9:00 AM 15.8 °F 5.1 °F 3.2 °F 58% 29.94 in 10.0 mi West 8.1 mph - N/A   Clear
9:20 AM 17.6 °F 9.3 °F 3.2 °F 53% 29.94 in 10.0 mi NW 5.8 mph 20.7 mph N/A   Clear
9:40 AM 17.6 °F 8.2 °F 3.2 °F 53% 29.95 in 10.0 mi WNW 6.9 mph - N/A   Clear
10:00 AM 17.6 °F 8.2 °F 1.4 °F 49% 29.96 in 10.0 mi West 6.9 mph 20.7 mph N/A   Clear
10:20 AM 19.4 °F 9.5 °F 3.2 °F 49% 29.97 in 10.0 mi West 8.1 mph - N/A   Clear
10:40 AM 21.2 °F 13.6 °F 3.2 °F 46% 29.97 in 10.0 mi West 5.8 mph - N/A   Clear
11:00 AM 21.2 °F 12.6 °F 1.4 °F 42% 29.98 in 10.0 mi NW 6.9 mph 21.9 mph N/A   Clear
11:21 AM 23.0 °F 17.0 °F 1.4 °F 39% 29.98 in 10.0 mi West 4.6 mph - N/A   Clear
11:41 AM 23.0 °F 12.4 °F 1.4 °F 39% 29.98 in 10.0 mi WNW 10.4 mph 17.3 mph N/A   Clear
12:00 PM 24.8 °F 16.9 °F 1.4 °F 36% 29.99 in 10.0 mi NNW 6.9 mph 18.4 mph N/A   Clear
12:20 PM 24.8 °F 12.9 °F 1.4 °F 36% 29.99 in 10.0 mi NW 13.8 mph 24.2 mph N/A   Clear
12:40 PM 26.6 °F 16.8 °F -0.4 °F 31% 29.98 in 10.0 mi NNW 10.4 mph 24.2 mph N/A   Clear
1:00 PM 26.6 °F 20.0 °F 1.4 °F 34% 29.99 in 10.0 mi NW 5.8 mph 23.0 mph N/A   Clear
1:40 PM 28.4 °F 19.1 °F 3.2 °F 34% 29.98 in 10.0 mi NW 10.4 mph 19.6 mph N/A   Clear
2:00 PM 28.4 °F - 3.2 °F 34% 29.98 in 10.0 mi Calm Calm - N/A   Clear
2:20 PM 30.2 °F 23.4 °F 5.0 °F 34% 29.98 in 10.0 mi WSW 6.9 mph - N/A   Clear
2:40 PM 30.2 °F 21.9 °F 5.0 °F 34% 29.98 in 10.0 mi West 9.2 mph - N/A   Clear
3:00 PM 30.2 °F 19.3 °F 3.2 °F 32% 29.98 in 10.0 mi West 15.0 mph 23.0 mph N/A   Clear
3:21 PM 30.2 °F 18.9 °F 3.2 °F 32% 29.97 in 10.0 mi West 16.1 mph 19.6 mph N/A   Clear
3:40 PM 30.2 °F 20.2 °F 3.2 °F 32% 29.97 in 10.0 mi West 12.7 mph 23.0 mph N/A   Clear
4:01 PM 30.2 °F 18.9 °F 3.2 °F 32% 29.97 in 10.0 mi West 16.1 mph 20.7 mph N/A   Clear
4:20 PM 30.2 °F 17.4 °F 3.2 °F 32% 29.97 in 10.0 mi West 20.7 mph - N/A   Clear
4:40 PM 30.2 °F 19.3 °F 5.0 °F 34% 29.99 in 10.0 mi West 15.0 mph 26.5 mph N/A   Clear
5:00 PM 30.2 °F 19.3 °F 5.0 °F 34% 30.00 in 10.0 mi WNW 15.0 mph 25.3 mph N/A   Clear
5:20 PM 28.4 °F 17.5 °F 3.2 °F 34% 30.00 in 10.0 mi West 13.8 mph 18.4 mph N/A   Clear
5:40 PM 28.4 °F 18.0 °F 5.0 °F 37% 30.01 in 10.0 mi WNW 12.7 mph 20.7 mph N/A   Clear
6:00 PM 26.6 °F 16.2 °F 5.0 °F 40% 30.01 in 10.0 mi West 11.5 mph 18.4 mph N/A   Clear
6:20 PM 26.6 °F 16.8 °F 5.0 °F 40% 30.03 in 10.0 mi West 10.4 mph 18.4 mph N/A   Clear
6:42 PM 24.8 °F - 5.0 °F 43% 30.03 in 10.0 mi Calm Calm - N/A   Clear
7:00 PM 24.8 °F 13.4 °F 6.8 °F 46% 30.04 in 10.0 mi West 12.7 mph 18.4 mph N/A   Clear
7:22 PM 24.8 °F 17.9 °F 6.8 °F 46% 30.04 in 10.0 mi West 5.8 mph 19.6 mph N/A   Clear
7:40 PM 24.8 °F 20.5 °F 6.8 °F 46% 30.04 in 10.0 mi West 3.5 mph - N/A   Clear
8:00 PM 24.8 °F 20.5 °F 6.8 °F 46% 30.04 in 10.0 mi West 3.5 mph - N/A   Clear
8:20 PM 24.8 °F 17.9 °F 6.8 °F 46% 30.04 in 10.0 mi West 5.8 mph - N/A   Clear
8:40 PM 24.8 °F 16.9 °F 6.8 °F 46% 30.04 in 10.0 mi West 6.9 mph - N/A   Clear
9:00 PM 24.8 °F 14.6 °F 6.8 °F 46% 30.05 in 10.0 mi WNW 10.4 mph 16.1 mph N/A   Clear
9:20 PM 24.8 °F 14.0 °F 6.8 °F 46% 30.05 in 10.0 mi West 11.5 mph - N/A   Clear
9:40 PM 23.0 °F 15.8 °F 6.8 °F 50% 30.05 in 10.0 mi West 5.8 mph - N/A   Clear
10:00 PM 23.0 °F 15.8 °F 6.8 °F 50% 30.05 in 10.0 mi NW 5.8 mph - N/A   Clear
10:20 PM 23.0 °F 14.7 °F 6.8 °F 50% 30.05 in 10.0 mi WNW 6.9 mph 16.1 mph N/A   Clear
10:40 PM 23.0 °F 12.4 °F 6.8 °F 50% 30.05 in 10.0 mi West 10.4 mph 17.3 mph N/A   Clear
11:00 PM 23.0 °F 11.7 °F 6.8 °F 50% 30.05 in 10.0 mi West 11.5 mph - N/A   Clear
11:20 PM 23.0 °F 11.7 °F 6.8 °F 50% 30.05 in 10.0 mi West 11.5 mph 17.3 mph N/A   Clear
11:40 PM 23.0 °F 11.7 °F 6.8 °F 50% 30.05 in 10.0 mi West 11.5 mph 16.1 mph N/A   Clear